Location: Ch?enovice
(49.7164°N, 15.2160°E)
Time: 12:23:16
(UTC+00:00)

USA 267 - Pass Details

Date: 15 November 2025
Orbit: 1100 x 1108 km, 123.0° (Epoch: 21 November)

Event Time Altitude Azimuth Distance (km) Brightness Sun altitude
Rises 05:02:31 0° 61° (ENE) 3,925 6.9 -11.1°
Reaches altitude 10° 05:05:01 10° 58° (ENE) 2,965 6.2 -10.7°
Maximum altitude 05:11:26 61° 340° (NNW) 1,238 3.4 -9.7°
Drops below altitude 10° 05:17:50 10° 263° (W) 2,956 5.0 -8.7°
Enters shadow 05:18:48 - 261° (W) 3,321 5.2 -8.6°
